Location: *
(34.6903°N, 135.5184°E)
Time: 11:49:20
(UTC+00:00)

Cosmos 1782 Rocket - Pass Details

Date: 22 September 2019
Orbit: 607 x 632 km, 82.5° (Epoch: 18 October)

Event Time Altitude Azimuth Distance (km) Brightness Sun altitude
Rises 19:45:28 0° 347° (NNW) 2,887 7.0 -13.2°
Reaches altitude 10° 19:47:44 10° 342° (NNW) 1,981 6.1 -12.8°
Maximum altitude 19:51:59 52° 267° (W) 775 3.7 -11.9°
Drops below altitude 10° 19:56:15 10° 191° (S) 1,983 6.0 -11.0°
Sets 19:58:31 0° 186° (S) 2,889 6.8 -10.6°
